| time (UTC) | temp F | wind direction | speed MPH | gust MPH | rain 1hr in | rain 24hr in | rain mn in | humidity % | barometer mb |
| 20260505113803 | 39 | 250 | 2.0 | 11.0 | 0.00 | 0.00 | 0.00 | 79 | 1011.5 |
| 20260505113303 | 40 | 265 | 1.0 | 9.0 | 0.00 | 0.00 | 0.00 | 78 | 1011.5 |
| 20260505112802 | 40 | 280 | 1.0 | 13.0 | 0.00 | 0.00 | 0.00 | 77 | 1011.4 |
| 20260505112304 | 40 | 252 | 2.0 | 13.0 | 0.00 | 0.00 | 0.00 | 77 | 1011.5 |
| 20260505111802 | 40 | 230 | 2.0 | 11.0 | 0.00 | 0.00 | 0.00 | 77 | 1011.5 |
| 20260505111303 | 40 | 260 | 1.0 | 8.0 | 0.00 | 0.00 | 0.00 | 77 | 1011.6 |
| 20260505111017 | 40 | 239 | 1.0 | 11.0 | 0.00 | 0.00 | 0.00 | 78 | 1011.6 |
| 20260505110251 | 40 | 213 | 1.0 | 11.0 | 0.00 | 0.00 | 0.00 | 78 | 1011.6 |
| 20260505102147 | 42 | 281 | 3.0 | 16.0 | 0.00 | 0.00 | 0.00 | 74 | 1011.5 |
| 20260505101857 | 42 | 229 | 3.0 | 17.0 | 0.00 | 0.00 | 0.00 | 74 | 1011.5 |
| 20260505101127 | 42 | 240 | 3.0 | 17.0 | 0.00 | 0.00 | 0.00 | 74 | 1011.5 |
| 20260505100621 | 42 | 219 | 1.0 | 11.0 | 0.00 | 0.00 | 0.00 | 74 | 1011.4 |
| 20260505100114 | 42 | 247 | 1.0 | 7.0 | 0.00 | 0.00 | 0.00 | 75 | 1011.5 |
| 20260505095832 | 42 | 263 | 2.0 | 13.0 | 0.00 | 0.00 | 0.00 | 75 | 1011.5 |
| 20260505095059 | 42 | 265 | 1.0 | 13.0 | 0.00 | 0.00 | 0.00 | 75 | 1011.4 |
| 20260505094553 | 42 | 227 | 1.0 | 10.0 | 0.00 | 0.00 | 0.00 | 75 | 1011.5 |
| 20260505094040 | 42 | 250 | 1.0 | 10.0 | 0.00 | 0.00 | 0.00 | 76 | 1011.4 |
| 20260505093757 | 42 | 218 | 0.0 | 10.0 | 0.00 | 0.00 | 0.00 | 77 | 1011.5 |
| 20260505093027 | 42 | 229 | 0.0 | 8.0 | 0.00 | 0.00 | 0.00 | 78 | 1011.5 |
| 20260505092517 | 42 | 228 | 0.0 | 8.0 | 0.00 | 0.00 | 0.00 | 78 | 1011.5 |
| 20260505092011 | 42 | 232 | 0.0 | 6.0 | 0.00 | 0.00 | 0.00 | 78 | 1011.5 |
| 20260505091504 | 42 | 259 | 0.0 | 6.0 | 0.00 | 0.00 | 0.00 | 78 | 1011.4 |
| 20260505090951 | 43 | 227 | 0.0 | 6.0 | 0.00 | 0.00 | 0.00 | 78 | 1011.4 |
| 20260505090445 | 43 | 247 | 1.0 | 11.0 | 0.00 | 0.00 | 0.00 | 77 | 1011.4 |
| 20260505090158 | 43 | 232 | 1.0 | 11.0 | 0.00 | 0.00 | 0.00 | 77 | 1011.4 |
| 20260505085429 | 42 | 240 | 0.0 | 10.0 | 0.00 | 0.00 | 0.00 | 78 | 1011.5 |
| 20260505084924 | 42 | 242 | 0.0 | 5.0 | 0.00 | 0.00 | 0.00 | 77 | 1011.4 |
| 20260505084417 | 43 | 245 | 1.0 | 9.0 | 0.00 | 0.00 | 0.00 | 77 | 1011.4 |
| 20260505084123 | 43 | 242 | 0.0 | 9.0 | 0.00 | 0.00 | 0.00 | 76 | 1011.5 |
| 20260505083357 | 43 | 271 | 1.0 | 10.0 | 0.00 | 0.00 | 0.00 | 75 | 1011.6 |
| 20260505082851 | 44 | 261 | 3.0 | 14.0 | 0.00 | 0.00 | 0.00 | 74 | 1011.6 |
| 20260505082340 | 44 | 255 | 6.0 | 15.0 | 0.00 | 0.00 | 0.00 | 73 | 1011.7 |
| 20260505082054 | 44 | 275 | 4.0 | 16.0 | 0.00 | 0.00 | 0.00 | 72 | 1011.7 |
| 20260505081329 | 44 | 275 | 1.0 | 12.0 | 0.00 | 0.00 | 0.00 | 72 | 1011.7 |
| 20260505080818 | 44 | 244 | 1.0 | 11.0 | 0.00 | 0.00 | 0.00 | 72 | 1011.9 |
| 20260505080313 | 44 | 243 | 1.0 | 10.0 | 0.00 | 0.00 | 0.00 | 72 | 1011.9 |
| 20260505075807 | 44 | 238 | 0.0 | 4.0 | 0.00 | 0.00 | 0.00 | 72 | 1011.9 |
| 20260505075514 | 44 | 271 | 0.0 | 4.0 | 0.00 | 0.00 | 0.00 | 72 | 1011.9 |
| 20260505074746 | 44 | 258 | 0.0 | 1.0 | 0.00 | 0.00 | 0.00 | 71 | 1011.7 |
| 20260505074241 | 44 | 274 | 0.0 | 1.0 | 0.00 | 0.00 | 0.00 | 71 | 1011.7 |
| 20260505073731 | 44 | 277 | 0.0 | 0.0 | 0.00 | 0.00 | 0.00 | 72 | 1011.7 |
| 20260505073225 | 44 | 266 | 0.0 | 0.0 | 0.00 | 0.00 | 0.00 | 72 | 1011.7 |
| 20260505072719 | 44 | 248 | 0.0 | 1.0 | 0.00 | 0.00 | 0.00 | 72 | 1011.9 |
| 20260505072221 | 44 | 231 | 0.0 | 8.0 | 0.00 | 0.00 | 0.00 | 73 | 1011.7 |
| 20260505071720 | 44 | 223 | 1.0 | 8.0 | 0.00 | 0.00 | 0.00 | 73 | 1011.9 |
| 20260505071442 | 44 | 217 | 2.0 | 15.0 | 0.00 | 0.00 | 0.00 | 73 | 1011.9 |
| 20260505070718 | 45 | 229 | 2.0 | 15.0 | 0.00 | 0.00 | 0.00 | 72 | 1011.9 |
| 20260505070219 | 45 | 219 | 1.0 | 14.0 | 0.00 | 0.00 | 0.00 | 70 | 1011.9 |
| 20260505065716 | 45 | 209 | 1.0 | 14.0 | 0.00 | 0.00 | 0.00 | 68 | 1012.0 |
| 20260505065216 | 45 | 234 | 1.0 | 14.0 | 0.00 | 0.00 | 0.00 | 67 | 1011.9 |
| 20260505064715 | 45 | 236 | 1.0 | 14.0 | 0.00 | 0.00 | 0.00 | 67 | 1012.0 |
| 20260505064438 | 45 | 220 | 1.0 | 10.0 | 0.00 | 0.00 | 0.00 | 67 | 1011.9 |
| 20260505063935 | 45 | 243 | 1.0 | 14.0 | 0.00 | 0.00 | 0.00 | 68 | 1011.9 |
| 20260505063217 | 45 | 208 | 2.0 | 14.0 | 0.00 | 0.00 | 0.00 | 68 | 1011.9 |
| 20260505062718 | 45 | 227 | 3.0 | 12.0 | 0.00 | 0.00 | 0.00 | 67 | 1012.0 |
| 20260505062204 | 45 | 244 | 4.0 | 13.0 | 0.00 | 0.00 | 0.00 | 67 | 1011.9 |
| 20260505061917 | 45 | 215 | 3.0 | 14.0 | 0.00 | 0.00 | 0.00 | 67 | 1011.7 |
| 20260505061151 | 45 | 210 | 3.0 | 14.0 | 0.00 | 0.00 | 0.00 | 67 | 1011.9 |
| 20260505060641 | 45 | 217 | 5.0 | 14.0 | 0.00 | 0.00 | 0.00 | 67 | 1011.7 |
| 20260505060135 | 45 | 207 | 5.0 | 14.0 | 0.00 | 0.00 | 0.00 | 68 | 1011.9 |
| 20260505055850 | 45 | 205 | 4.0 | 16.0 | 0.00 | 0.00 | 0.00 | 68 | 1011.7 |
| 20260505055115 | 45 | 214 | 5.0 | 16.0 | 0.00 | 0.00 | 0.00 | 68 | 1011.7 |
| 20260505054832 | 45 | 200 | 6.0 | 19.0 | 0.00 | 0.00 | 0.00 | 68 | 1011.6 |
| 20260505054104 | 45 | 201 | 5.0 | 19.0 | 0.00 | 0.00 | 0.00 | 68 | 1011.6 |
| 20260505053556 | 45 | 208 | 6.0 | 17.0 | 0.00 | 0.00 | 0.00 | 67 | 1011.5 |
| 20260505053048 | 45 | 211 | 6.0 | 20.0 | 0.00 | 0.00 | 0.00 | 67 | 1011.5 |
| 20260505052541 | 45 | 239 | 5.0 | 18.0 | 0.00 | 0.00 | 0.00 | 66 | 1011.5 |
| 20260505052034 | 46 | 214 | 4.0 | 18.0 | 0.00 | 0.00 | 0.00 | 66 | 1011.6 |
| 20260505051755 | 46 | 201 | 5.0 | 18.0 | 0.00 | 0.00 | 0.00 | 65 | 1011.6 |
| 20260505051035 | 46 | 215 | 4.0 | 16.0 | 0.00 | 0.00 | 0.00 | 64 | 1011.6 |
| 20260505050533 | 46 | 205 | 4.0 | 18.0 | 0.00 | 0.00 | 0.00 | 64 | 1011.6 |
| 20260505041526 | 46 | 219 | 3.0 | 13.0 | 0.00 | 0.00 | 0.00 | 65 | 1011.6 |
| 20260505041021 | 46 | 205 | 4.0 | 14.0 | 0.00 | 0.00 | 0.00 | 65 | 1011.6 |
| 20260505040514 | 46 | 211 | 4.0 | 14.0 | 0.00 | 0.00 | 0.00 | 65 | 1011.7 |
| 20260505040014 | 46 | 212 | 3.0 | 17.0 | 0.00 | 0.00 | 0.00 | 66 | 1011.6 |
| 20260505035512 | 46 | 198 | 3.0 | 17.0 | 0.00 | 0.00 | 0.00 | 66 | 1011.6 |
| 20260505035504 | 46 | 208 | 3.0 | 16.0 | 0.00 | 0.00 | 0.00 | 66 | 1011.6 |
| 20260505034512 | 46 | 209 | 4.0 | 16.0 | 0.00 | 0.00 | 0.00 | 66 | 1011.6 |
| 20260505034011 | 46 | 196 | 4.0 | 18.0 | 0.00 | 0.00 | 0.00 | 66 | 1011.6 |
| 20260505033512 | 47 | 210 | 4.0 | 18.0 | 0.00 | 0.00 | 0.00 | 65 | 1011.6 |
| 20260505033010 | 47 | 192 | 7.0 | 19.0 | 0.00 | 0.00 | 0.00 | 65 | 1011.6 |
| 20260505032511 | 47 | 200 | 5.0 | 19.0 | 0.00 | 0.00 | 0.00 | 64 | 1011.6 |
| 20260505032230 | 47 | 227 | 1.0 | 18.0 | 0.00 | 0.00 | 0.00 | 64 | 1011.5 |
| 20260505031729 | 47 | 205 | 1.0 | 12.0 | 0.00 | 0.00 | 0.00 | 63 | 1011.5 |
| 20260505031007 | 47 | 211 | 2.0 | 12.0 | 0.00 | 0.00 | 0.00 | 63 | 1011.5 |
| 20260505030507 | 47 | 203 | 3.0 | 15.0 | 0.00 | 0.00 | 0.00 | 63 | 1011.5 |
| 20260505030227 | 47 | 205 | 4.0 | 15.0 | 0.00 | 0.00 | 0.00 | 63 | 1011.5 |
| 20260505025508 | 47 | 232 | 5.0 | 18.0 | 0.00 | 0.00 | 0.00 | 62 | 1011.4 |
| 20260505025008 | 48 | 204 | 6.0 | 18.0 | 0.00 | 0.00 | 0.00 | 62 | 1011.5 |
| 20260505024506 | 48 | 218 | 6.0 | 18.0 | 0.00 | 0.00 | 0.00 | 60 | 1011.2 |
| 20260505024009 | 48 | 212 | 5.0 | 19.0 | 0.00 | 0.00 | 0.00 | 59 | 1011.0 |
| 20260505023503 | 48 | 204 | 2.0 | 19.0 | 0.00 | 0.00 | 0.00 | 58 | 1011.0 |
| 20260505023003 | 49 | 221 | 2.0 | 15.0 | 0.00 | 0.00 | 0.00 | 56 | 1010.9 |
| 20260505022504 | 49 | 227 | 1.0 | 10.0 | 0.00 | 0.00 | 0.00 | 54 | 1010.9 |
| 20260505022002 | 49 | 221 | 1.0 | 11.0 | 0.00 | 0.00 | 0.00 | 53 | 1010.9 |
| 20260505021504 | 50 | 215 | 1.0 | 11.0 | 0.00 | 0.00 | 0.00 | 52 | 1010.8 |
| 20260505021002 | 50 | 205 | 0.0 | 8.0 | 0.00 | 0.00 | 0.00 | 52 | 1010.8 |
| 20260505020502 | 50 | 207 | 0.0 | 2.0 | 0.00 | 0.00 | 0.00 | 52 | 1010.8 |
| 20260505020003 | 50 | 207 | 0.0 | 2.0 | 0.00 | 0.00 | 0.00 | 52 | 1010.8 |
| 20260505015458 | 50 | 207 | 0.0 | 7.0 | 0.00 | 0.00 | 0.00 | 53 | 1010.9 |
| 20260505014952 | 50 | 196 | 0.0 | 7.0 | 0.00 | 0.00 | 0.00 | 53 | 1010.9 |
| 20260505014703 | 50 | 207 | 0.0 | 4.0 | 0.00 | 0.00 | 0.00 | 53 | 1010.9 |
| 20260505013931 | 50 | 199 | 0.0 | 10.0 | 0.00 | 0.00 | 0.00 | 53 | 1011.1 |
| 20260505013426 | 51 | 209 | 1.0 | 10.0 | 0.00 | 0.00 | 0.00 | 54 | 1011.1 |
| 20260505012916 | 51 | 205 | 2.0 | 11.0 | 0.00 | 0.00 | 0.00 | 54 | 1011.4 |
| 20260505012409 | 51 | 202 | 2.0 | 11.0 | 0.00 | 0.00 | 0.00 | 53 | 1011.4 |
| 20260505011902 | 51 | 209 | 2.0 | 14.0 | 0.00 | 0.00 | 0.00 | 53 | 1011.5 |
| 20260505011349 | 51 | 217 | 3.0 | 14.0 | 0.00 | 0.00 | 0.00 | 52 | 1011.5 |
| 20260505010843 | 51 | 202 | 2.0 | 13.0 | 0.00 | 0.00 | 0.00 | 51 | 1011.5 |
| 20260505010337 | 51 | 196 | 2.0 | 18.0 | 0.00 | 0.00 | 0.00 | 51 | 1011.5 |
| 20260505005828 | 52 | 225 | 5.0 | 18.0 | 0.00 | 0.00 | 0.00 | 51 | 1011.5 |
| 20260505005321 | 53 | 184 | 3.0 | 16.0 | 0.00 | 0.00 | 0.00 | 50 | 1011.5 |
| 20260505005038 | 54 | 214 | 0.0 | 9.0 | 0.00 | 0.00 | 0.00 | 45 | 1011.5 |
| 20260505004301 | 54 | 177 | 0.0 | 4.0 | 0.00 | 0.00 | 0.00 | 42 | 1011.5 |
| 20260505003755 | 54 | 163 | 0.0 | 2.0 | 0.00 | 0.00 | 0.00 | 42 | 1011.4 |
| 20260505003514 | 54 | 165 | 0.0 | 2.0 | 0.00 | 0.00 | 0.00 | 42 | 1011.4 |
| 20260505003006 | 54 | 175 | 0.0 | 2.0 | 0.00 | 0.00 | 0.00 | 42 | 1011.5 |
| 20260505002233 | 54 | 190 | 1.0 | 6.0 | 0.00 | 0.00 | 0.00 | 43 | 1011.5 |
| 20260505001950 | 54 | 201 | 1.0 | 6.0 | 0.00 | 0.00 | 0.00 | 43 | 1011.6 |
| 20260505001212 | 54 | 150 | 1.0 | 7.0 | 0.00 | 0.00 | 0.00 | 43 | 1011.6 |
| 20260505000707 | 54 | 146 | 1.0 | 11.0 | 0.00 | 0.00 | 0.00 | 44 | 1011.7 |
| 20260505000204 | 54 | 162 | 2.0 | 16.0 | 0.00 | 0.00 | 0.00 | 43 | 1011.7 |
| 20260504235916 | 55 | 183 | 3.0 | 16.0 | 0.00 | 0.00 | 0.00 | 43 | 1011.9 |
| 20260504235144 | 55 | 198 | 3.0 | 13.0 | 0.00 | 0.00 | 0.00 | 43 | 1011.9 |
| 20260504234639 | 56 | 167 | 4.0 | 15.0 | 0.00 | 0.00 | 0.00 | 41 | 1012.0 |
| 20260504234124 | 58 | 155 | 3.0 | 15.0 | 0.00 | 0.00 | 0.00 | 37 | 1011.9 |
| 20260504233618 | 58 | 206 | 0.0 | 6.0 | 0.00 | 0.00 | 0.00 | 37 | 1012.0 |
| 20260504233113 | 57 | 232 | 0.0 | 0.0 | 0.00 | 0.00 | 0.00 | 38 | 1012.0 |
| 20260504232603 | 56 | 271 | 0.0 | 6.0 | 0.00 | 0.00 | 0.00 | 38 | 1011.9 |
| 20260504232058 | 57 | 281 | 0.0 | 5.0 | 0.00 | 0.00 | 0.00 | 37 | 1012.0 |
| 20260504231551 | 57 | 304 | 0.0 | 5.0 | 0.00 | 0.00 | 0.00 | 38 | 1011.9 |
| 20260504231037 | 56 | 279 | 0.0 | 2.0 | 0.00 | 0.00 | 0.00 | 38 | 1012.0 |
| 20260504230533 | 56 | 225 | 0.0 | 7.0 | 0.00 | 0.00 | 0.00 | 40 | 1012.0 |
| 20260504230025 | 56 | 267 | 1.0 | 11.0 | 0.00 | 0.00 | 0.00 | 40 | 1012.0 |
| 20260504225515 | 56 | 320 | 2.0 | 13.0 | 0.00 | 0.00 | 0.00 | 40 | 1012.0 |
| 20260504225009 | 56 | 289 | 2.0 | 13.0 | 0.00 | 0.00 | 0.00 | 41 | 1012.0 |
| 20260504224504 | 56 | 250 | 2.0 | 12.0 | 0.00 | 0.00 | 0.00 | 43 | 1012.0 |
| 20260504223949 | 56 | 311 | 3.0 | 13.0 | 0.00 | 0.00 | 0.00 | 42 | 1012.1 |
| 20260504223443 | 56 | 250 | 2.0 | 13.0 | 0.00 | 0.00 | 0.00 | 43 | 1012.1 |
| 20260504222937 | 55 | 290 | 3.0 | 15.0 | 0.00 | 0.00 | 0.00 | 45 | 1012.2 |
| 20260504222655 | 55 | 249 | 5.0 | 15.0 | 0.00 | 0.00 | 0.00 | 44 | 1012.2 |
| 20260504221921 | 55 | 265 | 4.0 | 18.0 | 0.00 | 0.00 | 0.00 | 45 | 1012.4 |
| 20260504221415 | 55 | 279 | 1.0 | 18.0 | 0.00 | 0.00 | 0.00 | 44 | 1012.4 |
| 20260504220901 | 55 | 281 | 1.0 | 12.0 | 0.00 | 0.00 | 0.00 | 43 | 1012.4 |
| 20260504220355 | 55 | 266 | 0.0 | 1.0 | 0.00 | 0.00 | 0.00 | 44 | 1012.5 |
| 20260504220337 | 54 | 251 | 0.0 | 1.0 | 0.00 | 0.00 | 0.00 | 44 | 1012.6 |
| 20260504215827 | 53 | 322 | 0.0 | 1.0 | 0.00 | 0.00 | 0.00 | 44 | 1012.5 |
| 20260504214842 | 53 | 5 | 0.0 | 1.0 | 0.00 | 0.00 | 0.00 | 45 | 1012.6 |
| 20260504214528 | 52 | 80 | 0.0 | 2.0 | 0.00 | 0.00 | 0.00 | 49 | 1012.8 |
| 20260504214420 | 52 | 350 | 0.0 | 0.0 | 0.00 | 0.00 | 0.00 | 46 | 1012.6 |
| 20260504213935 | 52 | 80 | 0.0 | 0.0 | 0.00 | 0.00 | 0.00 | 47 | 1012.8 |
| 20260504212842 | 51 | 98 | 0.0 | 5.0 | 0.00 | 0.00 | 0.00 | 50 | 1012.8 |
| 20260504212342 | 51 | 121 | 1.0 | 9.0 | 0.00 | 0.00 | 0.00 | 52 | 1012.8 |
| 20260504211842 | 51 | 134 | 1.0 | 9.0 | 0.00 | 0.00 | 0.00 | 54 | 1013.1 |
| 20260504211344 | 51 | 143 | 1.0 | 10.0 | 0.00 | 0.00 | 0.00 | 53 | 1013.1 |
| 20260504210844 | 51 | 124 | 1.0 | 10.0 | 0.00 | 0.00 | 0.00 | 52 | 1013.2 |
| 20260504210342 | 51 | 216 | 1.0 | 10.0 | 0.00 | 0.00 | 0.00 | 51 | 1013.3 |
| 20260504205842 | 51 | 154 | 1.0 | 11.0 | 0.00 | 0.00 | 0.00 | 51 | 1013.2 |
| 20260504205342 | 52 | 164 | 1.0 | 16.0 | 0.00 | 0.00 | 0.00 | 50 | 1013.2 |
| 20260504205054 | 52 | 172 | 2.0 | 16.0 | 0.00 | 0.00 | 0.00 | 49 | 1013.1 |
| 20260504204330 | 52 | 173 | 4.0 | 16.0 | 0.00 | 0.00 | 0.00 | 47 | 1013.1 |
| 20260504203821 | 53 | 175 | 4.0 | 16.0 | 0.00 | 0.00 | 0.00 | 45 | 1013.1 |
| 20260504203315 | 53 | 206 | 3.0 | 16.0 | 0.00 | 0.00 | 0.00 | 42 | 1013.0 |
| 20260504203033 | 54 | 192 | 2.0 | 16.0 | 0.00 | 0.00 | 0.00 | 41 | 1013.0 |
| 20260504202307 | 55 | 196 | 2.0 | 16.0 | 0.00 | 0.00 | 0.00 | 40 | 1012.8 |
| 20260504201806 | 55 | 194 | 1.0 | 14.0 | 0.00 | 0.00 | 0.00 | 39 | 1012.8 |
| 20260504201307 | 56 | 192 | 2.0 | 14.0 | 0.00 | 0.00 | 0.00 | 37 | 1012.8 |
| 20260504200806 | 56 | 185 | 2.0 | 14.0 | 0.00 | 0.00 | 0.00 | 35 | 1012.7 |
| 20260504200524 | 56 | 145 | 0.0 | 5.0 | 0.00 | 0.00 | 0.00 | 35 | 1012.7 |
| 20260504195801 | 56 | 246 | 0.0 | 0.0 | 0.00 | 0.00 | 0.00 | 33 | 1012.7 |
| 20260504195304 | 56 | 277 | 0.0 | 0.0 | 0.00 | 0.00 | 0.00 | 35 | 1012.6 |
| 20260504194803 | 55 | 292 | 0.0 | 1.0 | 0.00 | 0.00 | 0.00 | 35 | 1012.6 |
| 20260504194521 | 55 | 306 | 1.0 | 11.0 | 0.00 | 0.00 | 0.00 | 36 | 1012.7 |
| 20260504193759 | 55 | 300 | 3.0 | 16.0 | 0.00 | 0.00 | 0.00 | 37 | 1012.6 |
| 20260504193745 | 55 | 308 | 3.0 | 16.0 | 0.00 | 0.00 | 0.00 | 37 | 1012.6 |
| 20260504192758 | 55 | 355 | 3.0 | 22.0 | 0.00 | 0.00 | 0.00 | 36 | 1012.6 |
| 20260504192259 | 55 | 309 | 4.0 | 22.0 | 0.00 | 0.00 | 0.00 | 36 | 1012.6 |
| 20260504191758 | 55 | 302 | 4.0 | 19.0 | 0.00 | 0.00 | 0.00 | 35 | 1012.6 |
| 20260504191521 | 56 | 342 | 2.0 | 17.0 | 0.00 | 0.00 | 0.00 | 33 | 1012.6 |
| 20260504190759 | 56 | 302 | 2.0 | 15.0 | 0.00 | 0.00 | 0.00 | 34 | 1012.6 |
| 20260504190259 | 56 | 282 | 1.0 | 11.0 | 0.00 | 0.00 | 0.00 | 34 | 1012.6 |
| 20260504185759 | 56 | 293 | 2.0 | 14.0 | 0.00 | 0.00 | 0.00 | 34 | 1012.6 |
| 20260504185259 | 56 | 292 | 2.0 | 16.0 | 0.00 | 0.00 | 0.00 | 34 | 1012.6 |
| 20260504185020 | 56 | 272 | 1.0 | 16.0 | 0.00 | 0.00 | 0.00 | 33 | 1012.5 |
| 20260504184258 | 56 | 302 | 4.0 | 14.0 | 0.00 | 0.00 | 0.00 | 33 | 1012.5 |
| 20260504183758 | 57 | 283 | 4.0 | 16.0 | 0.00 | 0.00 | 0.00 | 33 | 1012.5 |
| 20260504183257 | 57 | 254 | 4.0 | 16.0 | 0.00 | 0.00 | 0.00 | 32 | 1012.4 |
| 20260504182758 | 58 | 274 | 3.0 | 13.0 | 0.00 | 0.00 | 0.00 | 32 | 1012.5 |
| 20260504182258 | 59 | 217 | 2.0 | 12.0 | 0.00 | 0.00 | 0.00 | 33 | 1012.4 |
| 20260504182240 | 59 | 189 | 2.0 | 13.0 | 0.00 | 0.00 | 0.00 | 33 | 1012.4 |
| 20260504181258 | 60 | 159 | 1.0 | 13.0 | 0.00 | 0.00 | 0.00 | 32 | 1012.2 |
| 20260504180757 | 61 | 205 | 1.0 | 11.0 | 0.00 | 0.00 | 0.00 | 28 | 1012.4 |
| 20260504180259 | 61 | 215 | 2.0 | 11.0 | 0.00 | 0.00 | 0.00 | 27 | 1012.2 |
| 20260504175759 | 62 | 173 | 1.0 | 9.0 | 0.00 | 0.00 | 0.00 | 27 | 1012.2 |
| 20260504175257 | 62 | 288 | 1.0 | 9.0 | 0.00 | 0.00 | 0.00 | 27 | 1012.2 |
| 20260504174757 | 62 | 198 | 2.0 | 10.0 | 0.00 | 0.00 | 0.00 | 28 | 1012.4 |
| 20260504174259 | 62 | 137 | 2.0 | 11.0 | 0.00 | 0.00 | 0.00 | 28 | 1012.4 |
| 20260504173758 | 62 | 204 | 1.0 | 11.0 | 0.00 | 0.00 | 0.00 | 27 | 1012.4 |
| 20260504173521 | 61 | 192 | 1.0 | 10.0 | 0.00 | 0.00 | 0.00 | 29 | 1012.5 |
| 20260504172759 | 60 | 178 | 1.0 | 10.0 | 0.00 | 0.00 | 0.00 | 29 | 1012.5 |
| 20260504172258 | 60 | 190 | 1.0 | 7.0 | 0.00 | 0.00 | 0.00 | 30 | 1012.6 |
| 20260504172005 | 60 | 238 | 0.0 | 7.0 | 0.00 | 0.00 | 0.00 | 31 | 1012.7 |
| 20260504171238 | 60 | 232 | 1.0 | 10.0 | 0.00 | 0.00 | 0.00 | 31 | 1012.8 |
| 20260504170739 | 59 | 251 | 2.0 | 10.0 | 0.00 | 0.00 | 0.00 | 31 | 1012.8 |
| 20260504170239 | 59 | 222 | 1.0 | 9.0 | 0.00 | 0.00 | 0.00 | 32 | 1013.0 |
| 20260504160446 | 56 | 181 | 1.0 | 11.0 | 0.00 | 0.00 | 0.00 | 40 | 1013.2 |
| 20260504151143 | 54 | 215 | 2.0 | 13.0 | 0.00 | 0.00 | 0.00 | 43 | 1013.7 |
| 20260504150645 | 54 | 213 | 2.0 | 11.0 | 0.00 | 0.00 | 0.00 | 43 | 1013.8 |
| 20260504150144 | 54 | 205 | 1.0 | 11.0 | 0.00 | 0.00 | 0.00 | 43 | 1013.8 |
| 20260504141127 | 49 | 204 | 1.0 | 15.0 | 0.00 | 0.00 | 0.00 | 52 | 1014.0 |
| 20260504141119 | 48 | 206 | 2.0 | 15.0 | 0.00 | 0.00 | 0.00 | 53 | 1013.8 |
| 20260504140127 | 48 | 218 | 3.0 | 14.0 | 0.00 | 0.00 | 0.00 | 53 | 1013.8 |
| 20260504130612 | 46 | 231 | 1.0 | 11.0 | 0.00 | 0.00 | 0.00 | 57 | 1014.1 |
| 20260504130556 | 46 | 232 | 1.0 | 11.0 | 0.00 | 0.00 | 0.00 | 56 | 1014.1 |
| 20260504120154 | 47 | 278 | 5.0 | 13.0 | 0.00 | 0.00 | 0.00 | 52 | 1013.6 |